Showing default

HULIANWANG DIGUI-19, 62979

Orbit data source: Space-Track

HULIANWANG DIGUI-19, 62979 is a payload satellite owned by Zhongguo Xingwang (CN) in LEO that was launched on Tue, 11 Feb 2025 UTC via a CHANG ZHENG 8A launch vehicle from the Wenchang Satellite Launch Center (WSC). Payload-class satellites include a variety of spacecraft equipped with specific instruments for various scientific and technological missions. These include communications satellites like Starlink; space stations such as the ISS; scientific satellites like the Hubble; Earth observation satellites from companies like Planet Labs, Umbra, and HawkEye 360; GPS; miniature CubeSats for education and research; and military/defense satellites.

Loading next visibility...
Identifier
62979, 2025-030J
Orbit
LEO
Country
Flag of CNCN / PRC
Related business
Manufacturer
CAST
Mission
Operational Civil Communications
Bus & Motor
XINGWANG C, Unknown motor
Mass
~700 kg wet, ~700 kg dry
Launch date (UTC)
2025-02-11 (1 year ago)
Launch vehicle
CHANG ZHENG 8A
Launch site
Wenchang Satellite Launch Center (WSC)
Object type
Payload
Rocket body
Debris
Shape & HBR
Box + 2 Pan, 2.1 m
Radar Cross Section
5.935 m², Large (>1 m²)

Expand to show TLE details & history
Last TLE update: 10 hours ago

TLE from 10 hours ago
0 HULIANWANG DIGUI-19
1 62979U 25030J   26037.24772558 -.00000076  00000-0  10439-3 0  9995
2 62979  50.0073 345.3784 0000461  82.5144 277.5780 13.29339087 48440
Epoch: 2026-02-06T05:56Z
TLE epoch observation values (Epoch: 2026-02-06T05:56:43.490Z)
Latitude
-0.00004°
Longitude
119.80882°
Altitude
1,149.718 km
Speed
7.279 km/s
True Right ascension
23h 01m 30s
True Declination
0° 00' 00"
Sunlit
Object was in daylight at epoch
Visualization orbit readout
Latitude
Unknown
Longitude
Unknown
Altitude
Unknown
Speed
Unknown
Apparent Right ascension
Unknown
Apparent Declination
Unknown
Sunlit
N/A
Visualization observer readout
Local Sidereal Time
17:43:26
Azimuth
Unknown
Elevation
Unknown
Doppler factor
Unknown
Orbital elements
Apogee altitude
1,150.308 km
Perigee altitude
1,149.614 km
Semi-major axis
7,528.098 km
Eccentricity
0.00005
Inclination
50.0073°
RAAN
345.3784°
Arg. of periapsis
82.5144°
True anomaly
277.57276°
Mean anomaly
277.578°
Eccentric anomaly
277.57538°
Mean motion
3.32288 °/min
Orbital period
108.34 mins
BSTAR
0.00010439
Loading maneuver chart data...
Computing Atmospheric mass density...
Loading historical data...
Loading historical data...
Loading historical data...
Loading historical data...
Loading historical data...
Loading historical data...
Loading historical data...

Documentation

Showing up to 5 results
|